Back to catalog

FENGYUN 1C DEB

AliveSSO
NORAD 29948·DEBRIS·🇨🇳 China

Launched May 10, 1999 from Taiyuan Satellite Launch Center

Loading…

Next Passes (next 24 hours)

TLE

FreshSource: Space-Track

Epoch: Sep 14, 2026, 10:18 UTC

1 29948U 99025JW  26257.42959836  .00000237  00000-0  16473-3 0  9991
2 29948  98.8504 242.1000 0084369 179.7265 334.0473 14.06310931  8510

Track FENGYUN 1C DEB in real time with AllMySat

Download on the App Store